Weather History for Glendive, MT

Change the Weather History Date:

Saturday, July 27, 2013

  Actual Average Record
Temperature  
Mean Temperature 62 °F -  
Max Temperature 77 °F 84 °F 102 °F (2006)
Min Temperature 48 °F 57 °F 48 °F (2013)
Degree Days  
Heating Degree Days 2    
Growing Degree Days 12 (Base 50)    
Moisture  
Dew Point 44 °F    
Average Humidity 49    
Maximum Humidity 76    
Minimum Humidity 36    
Precipitation  
Precipitation 0.00 in - - ()
Sea Level Pressure  
Sea Level Pressure 30.09 in    
Wind  
Wind Speed 12 mph (ESE)    
Max Wind Speed 20 mph    
Max Gust Speed 24 mph    
Visibility 10 miles    
Events      
Averages and records for this station are not official NWS values.
T = Trace of Precipitation, MM = Missing Value Source: NWS Daily Summary

Daily Weather History Graph

Daily Weather History Graph

Search for Another Location

Airport:

Trip Planner

Search our weather history database for the weather conditions in past years. The results will help you decide how hot, cold, wet, or windy it might be!

Date:

Astronomy

Jul. 27, 2013 Rise Set
Actual Time 5:32 AM MDT 8:38 PM MDT
Civil Twilight 4:56 AM MDT 9:14 PM MDT
Nautical Twilight 4:08 AM MDT 10:01 PM MDT
Astronomical Twilight 3:10 AM MDT 10:58 PM MDT
Moon 10:57 PM MDT (7/27) 11:43 AM MDT (7/27)
Length of Visible Light 16h 18m
Length of Day
15h 05m
Waning Gibbous, 70% of the Moon is Illuminated
Jul 27
Waning Gibbous
Jul 29
Last Quarter
Aug 6
New
Aug 14
First Quarter
Aug 20
Full

Hourly Weather History & Observations

Time (MDT) Temp. Dew Point Humidity Pressure Visibility Wind Dir Wind Speed Gust Speed Precip Events Conditions
12:15 AM 55.4 °F 42.8 °F 63% 30.23 in 10.0 mi East 12.7 mph - N/A   Clear
12:35 AM 55.4 °F 42.8 °F 63% 30.23 in 10.0 mi East 10.4 mph - N/A   Clear
12:55 AM 53.6 °F 42.8 °F 67% 30.24 in 10.0 mi East 6.9 mph - N/A   Clear
1:15 AM 53.6 °F 41.0 °F 62% 30.23 in 10.0 mi SE 8.1 mph - N/A   Clear
1:35 AM 55.4 °F 41.0 °F 58% 30.23 in 10.0 mi SE 13.8 mph - N/A   Clear
1:55 AM 55.4 °F 39.2 °F 54% 30.22 in 10.0 mi ESE 15.0 mph 19.6 mph N/A   Clear
2:15 AM 55.4 °F 39.2 °F 54% 30.22 in 10.0 mi ESE 9.2 mph - N/A   Clear
2:35 AM 53.6 °F 41.0 °F 62% 30.22 in 10.0 mi ESE 9.2 mph - N/A   Clear
2:55 AM 53.6 °F 39.2 °F 58% 30.21 in 10.0 mi ESE 9.2 mph - N/A   Clear
3:15 AM 53.6 °F 41.0 °F 62% 30.20 in 10.0 mi ESE 11.5 mph - N/A   Clear
3:35 AM 53.6 °F 39.2 °F 58% 30.20 in 10.0 mi ESE 8.1 mph - N/A   Clear
3:55 AM 51.8 °F 41.0 °F 67% 30.20 in 10.0 mi ESE 6.9 mph - N/A   Clear
4:15 AM 51.8 °F 41.0 °F 67% 30.20 in 10.0 mi ESE 6.9 mph - N/A   Clear
4:35 AM 50.0 °F 41.0 °F 71% 30.21 in 10.0 mi ESE 6.9 mph - N/A   Clear
4:55 AM 50.0 °F 41.0 °F 71% 30.20 in 10.0 mi SE 3.5 mph - N/A   Clear
5:35 AM 51.8 °F 41.0 °F 67% 30.20 in 10.0 mi East 5.8 mph - N/A   Clear
5:55 AM 48.2 °F 41.0 °F 76% 30.20 in 10.0 mi East 6.9 mph - N/A   Clear
6:15 AM 50.0 °F 41.0 °F 71% 30.20 in 10.0 mi East 6.9 mph - N/A   Clear
6:55 AM 51.8 °F 42.8 °F 71% 30.20 in 10.0 mi ENE 9.2 mph - N/A   Clear
7:15 AM 53.6 °F 41.0 °F 62% 30.19 in 10.0 mi East 9.2 mph - N/A   Clear
7:35 AM 53.6 °F 42.8 °F 67% 30.19 in 10.0 mi East 11.5 mph - N/A   Clear
7:55 AM 55.4 °F 42.8 °F 63% 30.18 in 10.0 mi East 11.5 mph - N/A   Clear
8:15 AM 57.2 °F 42.8 °F 59% 30.17 in 10.0 mi ESE 10.4 mph - N/A   Clear
8:35 AM 59.0 °F 42.8 °F 55% 30.16 in 10.0 mi SE 11.5 mph - N/A   Clear
8:55 AM 60.8 °F 42.8 °F 52% 30.16 in 10.0 mi SE 12.7 mph - N/A   Clear
9:15 AM 62.6 °F 44.6 °F 52% 30.14 in 10.0 mi SSE 12.7 mph - N/A   Clear
9:35 AM 64.4 °F 44.6 °F 49% 30.13 in 10.0 mi ESE 17.3 mph 21.9 mph N/A   Clear
9:55 AM 64.4 °F 44.6 °F 49% 30.13 in 10.0 mi SE 13.8 mph - N/A   Clear
10:15 AM 66.2 °F 44.6 °F 46% 30.12 in 10.0 mi SE 12.7 mph - N/A   Clear
10:35 AM 66.2 °F 44.6 °F 46% 30.11 in 10.0 mi ESE 13.8 mph 24.2 mph N/A   Clear
10:55 AM 68.0 °F 44.6 °F 43% 30.11 in 10.0 mi ESE 19.6 mph 23.0 mph N/A   Clear
11:15 AM 69.8 °F 44.6 °F 40% 30.10 in 10.0 mi ESE 19.6 mph 23.0 mph N/A   Clear
11:35 AM 69.8 °F 46.4 °F 43% 30.10 in 10.0 mi ESE 17.3 mph 24.2 mph N/A   Clear
11:55 AM 69.8 °F 46.4 °F 43% 30.09 in 10.0 mi SE 17.3 mph - N/A   Clear
12:35 PM 71.6 °F 46.4 °F 41% 30.08 in 10.0 mi ESE 15.0 mph 24.2 mph N/A   Clear
12:55 PM 73.4 °F 46.4 °F 38% 30.07 in 10.0 mi SE 16.1 mph - N/A   Clear
1:15 PM 73.4 °F 46.4 °F 38% 30.06 in 10.0 mi SE 16.1 mph 23.0 mph N/A   Clear
1:35 PM 73.4 °F 48.2 °F 41% 30.06 in 10.0 mi SE 12.7 mph 21.9 mph N/A   Clear
1:55 PM 75.2 °F 46.4 °F 36% 30.05 in 10.0 mi ESE 15.0 mph 21.9 mph N/A   Clear
2:15 PM 75.2 °F 48.2 °F 38% 30.04 in 10.0 mi ESE 15.0 mph 23.0 mph N/A   Clear
2:35 PM 75.2 °F 48.2 °F 38% 30.03 in 10.0 mi ESE 13.8 mph 19.6 mph N/A   Clear
2:55 PM 75.2 °F 48.2 °F 38% 30.03 in 10.0 mi ESE 15.0 mph 23.0 mph N/A   Clear
3:15 PM 75.2 °F 48.2 °F 38% 30.02 in 10.0 mi ESE 17.3 mph 23.0 mph N/A   Clear
3:35 PM 77.0 °F 48.2 °F 36% 30.01 in 10.0 mi ESE 15.0 mph 20.7 mph N/A   Clear
3:55 PM 77.0 °F 48.2 °F 36% 30.00 in 10.0 mi SE 13.8 mph 19.6 mph N/A   Clear
4:15 PM 77.0 °F 48.2 °F 36% 29.99 in 10.0 mi ESE 18.4 mph 21.9 mph N/A   Clear
4:35 PM 77.0 °F 48.2 °F 36% 29.99 in 10.0 mi ESE 15.0 mph 23.0 mph N/A   Clear
5:15 PM 77.0 °F 48.2 °F 36% 29.98 in 10.0 mi ESE 16.1 mph - N/A   Clear
5:35 PM 77.0 °F 48.2 °F 36% 29.98 in 10.0 mi ESE 17.3 mph 24.2 mph N/A   Clear
5:55 PM 77.0 °F 48.2 °F 36% 29.97 in 10.0 mi ESE 13.8 mph 21.9 mph N/A   Clear
6:15 PM 77.0 °F 48.2 °F 36% 29.97 in 10.0 mi ESE 17.3 mph 23.0 mph N/A   Clear
6:35 PM 75.2 °F 48.2 °F 38% 29.97 in 10.0 mi ESE 12.7 mph 21.9 mph N/A   Clear
6:55 PM 75.2 °F 48.2 °F 38% 29.96 in 10.0 mi SE 18.4 mph - N/A   Clear
7:15 PM 75.2 °F 48.2 °F 38% 29.96 in 10.0 mi ESE 15.0 mph - N/A   Clear
7:55 PM 71.6 °F 46.4 °F 41% 29.96 in 10.0 mi ESE 15.0 mph 18.4 mph N/A   Clear
8:15 PM 71.6 °F 46.4 °F 41% 29.96 in 10.0 mi ESE 18.4 mph - N/A   Clear
8:35 PM 69.8 °F 44.6 °F 40% 29.96 in 10.0 mi East 16.1 mph 20.7 mph N/A   Clear
8:55 PM 68.0 °F 44.6 °F 43% 29.96 in 10.0 mi ESE 16.1 mph - N/A   Clear
9:15 PM 68.0 °F 44.6 °F 43% 29.97 in 10.0 mi ESE 17.3 mph 20.7 mph N/A   Clear
9:35 PM 66.2 °F 42.8 °F 43% 29.97 in 10.0 mi ESE 15.0 mph - N/A   Clear
9:55 PM 66.2 °F 42.8 °F 43% 29.98 in 10.0 mi ESE 13.8 mph - N/A   Clear
10:15 PM 64.4 °F 42.8 °F 45% 29.97 in 10.0 mi ESE 11.5 mph - N/A   Clear
10:35 PM 64.4 °F 41.0 °F 42% 29.97 in 10.0 mi SE 13.8 mph 18.4 mph N/A   Clear
10:55 PM 64.4 °F 41.0 °F 42% 29.96 in 10.0 mi ESE 12.7 mph - N/A   Clear
11:15 PM 62.6 °F 39.2 °F 42% 29.96 in 10.0 mi ESE 12.7 mph - N/A   Clear
11:36 PM 62.6 °F 39.2 °F 42% 29.97 in 10.0 mi ESE 11.5 mph - N/A   Clear